Wind_Speed
14 13 10 8 7 6 5 3 3 3 2 5 7 8 9 10 10 12 11 10 11 12 13 13 12 11 11 10 9 9 10 10 10 9 9 9 8 8 7 6 6 6 5 5
15 12 10 10 9 8 7 5 5 4 3 4 6 7 8 9 9 10 11 10 9 10 11 11 11 11 10 9 9 8 8 9 9 9 9 8 8 7 7 6 6 6 5 4
16 14 13 11 10 9 9 8 6 7 7 7 7 7 7 8 8 8 8 9 9 8 9 9 9 9 9 8 8 8 7 7 7 7 7 7 7 7 6 5 5 5 4 4
18 17 15 12 11 10 9 8 9 10 10 9 8 10 9 7 7 7 8 8 8 9 8 8 8 8 8 7 7 7 7 7 7 7 7 7 6 5 5 4 4 3 3 3
19 18 16 14 11 12 11 10 11 13 14 13 11 10 9 8 6 6 7 8 9 9 8 7 6 6 6 6 6 6 6 6 6 5 6 6 6 5 4 4 3 2 2 2
19 18 18 16 15 14 12 12 13 14 14 12 10 10 10 9 7 6 7 8 8 8 7 6 5 4 4 4 4 4 4 4 3 3 4 4 4 4 4 3 3 2 2 2
21 20 19 19 18 18 16 14 14 15 15 14 11 11 11 11 10 7 6 7 7 6 7 6 6 5 4 3 2 2 2 2 2 2 2 3 3 3 3 3 3 3 3 3
23 21 20 19 18 18 18 17 16 16 15 14 14 13 11 12 11 10 8 8 7 6 8 7 6 6 6 4 3 2 1 1 1 1 1 2 2 2 2 2 3 3 3 4
23 22 20 19 19 18 19 18 17 16 16 17 15 14 13 11 11 11 10 9 8 8 8 8 7 7 7 6 5 4 3 2 2 3 3 3 4 4 4 4 4 4 4 5
23 23 22 21 21 19 19 18 18 19 19 19 18 16 14 12 12 12 13 11 9 9 9 9 8 9 9 9 9 8 7 5 5 5 5 5 6 6 6 6 6 6 6 6
23 23 22 22 22 21 20 20 20 21 21 21 20 18 16 14 14 14 14 12 10 10 11 11 10 10 9 9 9 9 8 6 6 7 8 8 8 8 8 8 8 8 8 8
23 23 23 23 22 21 22 22 22 23 24 23 22 20 19 17 15 16 16 16 14 14 14 12 11 11 11 10 10 9 10 9 9 9 10 10 10 10 10 10 9 9 10 10
24 25 25 24 24 23 24 24 24 24 25 25 26 24 22 19 17 18 18 18 17 16 15 14 12 11 11 12 12 12 12 12 12 12 12 12 12 12 12 12 11 11 12 12
26 26 26 26 26 25 25 25 25 26 26 26 26 24 23 20 19 18 19 19 20 18 18 17 14 13 13 13 13 14 14 14 14 14 14 14 14 15 15 14 14 13 14 14
27 27 27 27 27 27 27 27 26 27 27 27 26 25 23 21 21 20 20 20 20 20 19 18 16 16 16 16 17 17 17 16 16 16 16 16 16 16 15 15 16 16 16 16
28 28 28 28 28 28 29 29 28 29 29 28 27 25 23 23 23 24 23 21 21 21 21 20 19 18 18 18 19 18 19 18 18 18 18 18 18 17 17 18 19 18 18 18
28 28 27 27 28 29 30 29 29 29 30 30 28 25 25 25 25 25 24 23 22 21 22 22 20 20 19 19 20 19 20 21 21 21 20 19 20 20 20 20 19 19 20 20
27 27 28 28 29 30 28 28 29 30 31 30 29 27 27 27 26 25 25 25 25 24 23 22 21 22 22 22 21 22 22 23 23 22 22 22 21 22 22 21 21 21 22 23
26 26 27 29 30 31 29 27 28 30 31 30 29 27 28 28 28 28 28 27 26 26 26 25 24 24 24 24 24 24 24 24 24 24 24 24 23 23 23 24 24 23 24 25
26 25 27 29 30 31 29 27 27 29 30 28 28 28 29 29 29 28 27 26 26 27 27 27 27 26 26 26 26 25 25 25 26 26 26 25 25 25 26 26 26 26 26 27
27 27 28 28 29 29 28 27 27 28 28 27 28 28 28 28 27 27 26 27 27 27 27 27 28 28 28 28 28 27 27 27 28 28 26 26 26 27 27 27 28 28 28 28
26 28 27 27 27 27 26 26 27 27 26 26 27 27 27 27 27 27 27 27 28 28 28 28 28 28 29 29 29 28 28 28 28 28 28 28 28 28 29 29 30 30 30 29
25 27 26 25 25 25 25 25 25 26 26 26 26 27 27 27 27 27 28 28 28 29 28 28 28 29 29 29 29 28 28 30 30 29 28 28 29 29 30 30 30 31 31 32
25 24 24 25 23 23 23 23 24 25 25 25 27 26 26 27 27 27 26 27 26 27 27 27 28 29 29 30 30 30 29 29 29 28 28 28 29 29 30 31 31 32 33 33
24 23 23 24 23 23 22 22 22 23 24 25 26 27 26 25 26 26 25 25 25 26 26 27 27 28 28 29 28 28 28 28 27 27 27 26 28 29 30 31 32 33 32 33
24 24 24 24 23 23 22 21 21 22 23 23 24 25 25 25 25 25 25 24 24 25 25 26 26 27 27 29 29 28 27 27 27 27 28 28 28 29 30 31 32 33 33 33
Wind_Direction
204 201 199 209 213 201 187 222 271 281 300 327 343 355 6 8 9 11 13 21 27 27 28 33 37 38 45 52 58 61 62 61 62 63 67 71 76 82 89 95 96 96 96 92
208 201 196 207 208 202 206 222 250 246 254 295 319 334 345 359 0 5 359 7 23 26 22 24 30 35 39 46 50 54 56 57 58 60 63 65 68 76 83 86 90 94 91 89
211 205 204 209 212 219 220 223 245 257 254 267 283 305 318 336 344 358 358 1 6 12 19 20 23 28 31 37 41 44 48 52 53 55 61 63 63 69 78 79 84 88 84 80
216 211 212 216 218 224 226 232 244 249 259 261 264 283 297 307 328 344 346 355 357 356 5 11 10 19 26 28 33 42 50 52 54 57 59 61 64 62 65 69 68 71 69 67
219 215 214 216 213 227 232 238 249 254 255 256 257 269 277 289 311 325 334 344 346 348 354 359 357 10 21 26 33 40 46 48 52 56 59 62 61 67 65 55 59 58 45 45
217 216 216 218 216 225 230 238 247 258 256 251 255 266 273 284 290 304 322 332 332 340 344 345 341 358 21 30 32 30 28 38 50 50 48 53 58 64 57 44 42 34 19 11
215 214 216 221 223 225 232 236 243 252 253 252 254 262 271 279 284 289 307 324 324 329 331 330 330 340 358 8 8 7 12 21 36 44 40 38 42 44 40 34 28 17 6 359
216 216 220 224 225 230 234 237 241 252 252 252 252 259 270 273 275 282 296 308 312 315 319 317 311 318 315 315 308 309 336 357 1 353 340 332 336 346 345 344 353 357 351 343
222 220 221 223 225 233 235 239 246 256 256 258 258 260 264 270 271 280 291 299 305 306 305 306 308 308 302 296 288 274 271 269 274 280 290 299 305 309 308 307 314 314 318 323
224 221 220 222 226 229 235 239 243 248 253 255 258 261 263 265 275 283 292 290 291 292 289 289 294 298 300 299 295 290 285 276 278 278 280 286 295 297 294 293 294 296 300 304
221 222 220 220 223 229 233 235 239 243 248 254 256 253 258 264 271 279 284 285 282 278 277 279 283 290 298 296 294 291 286 285 278 276 278 280 285 288 286 287 288 287 289 295
223 226 224 223 225 231 234 235 240 243 247 252 254 255 254 258 265 271 278 282 282 282 278 277 279 285 285 287 289 291 291 284 282 279 283 281 282 280 278 279 283 283 284 288
230 231 229 225 224 226 230 233 239 244 248 253 254 257 256 255 259 267 273 276 281 282 280 283 281 279 280 285 287 286 290 285 283 282 283 279 275 273 272 273 277 279 280 281
234 235 235 233 230 227 230 234 240 243 247 251 253 253 253 253 257 263 271 276 279 278 277 278 281 282 280 281 283 283 285 281 280 281 279 279 274 275 273 272 274 277 280 281
236 238 239 238 236 232 232 235 240 243 247 251 253 251 250 253 258 263 267 271 276 279 274 272 271 275 280 280 280 280 279 277 277 277 277 279 280 281 278 277 277 279 281 282
238 240 241 242 237 235 236 237 238 242 245 249 253 254 257 258 260 263 264 269 274 274 272 271 274 277 274 274 276 276 277 276 275 276 277 279 280 282 282 281 281 279 279 280
241 240 241 240 238 238 237 238 237 241 245 249 253 256 260 262 263 264 263 266 269 271 272 270 271 273 275 277 277 274 273 277 276 275 276 277 278 281 281 280 281 280 280 279
240 241 242 244 242 241 239 240 240 241 245 250 252 256 259 261 262 264 265 268 270 271 271 271 270 271 272 272 273 271 271 275 275 274 273 274 275 277 279 278 278 279 280 278
239 240 243 245 247 246 243 242 242 244 246 250 250 252 257 260 262 263 266 266 268 269 272 270 269 268 268 268 269 270 271 273 273 274 274 275 274 275 275 277 278 277 277 278
238 240 245 247 247 248 249 246 246 247 247 248 251 252 256 261 260 262 263 263 266 269 271 271 270 268 268 269 270 273 274 274 275 273 272 271 271 272 273 275 276 277 277 276
240 242 246 247 250 251 249 248 246 247 249 249 251 255 260 263 264 263 263 264 265 266 269 271 271 270 269 270 272 272 275 276 276 273 274 273 272 273 275 277 277 277 276 276
241 241 244 247 250 250 251 251 249 250 250 251 253 256 260 263 264 265 265 266 266 266 267 268 270 271 270 272 274 274 274 274 275 274 273 274 274 275 276 278 278 277 276 276
241 242 244 246 250 251 252 253 252 252 252 253 254 255 257 259 263 265 268 270 269 267 267 267 268 271 272 273 273 273 274 275 275 275 273 275 277 277 277 277 277 277 277 277
243 243 243 247 251 253 252 254 256 256 254 255 257 258 259 260 263 266 269 270 270 268 267 268 269 269 270 272 274 275 276 277 277 277 276 275 277 277 277 276 277 278 278 278
243 245 246 249 251 254 254 257 260 261 257 258 260 262 261 262 263 264 266 268 269 269 268 270 270 269 270 271 274 278 279 279 277 276 277 276 275 276 276 277 278 280 282 280
242 246 249 250 250 253 258 262 263 264 261 259 259 259 259 262 264 264 266 269 269 269 269 270 271 271 273 273 276 278 277 277 275 274 275 276 277 278 278 279 280 281 282 283
Height
5907 5910 5911 5912 5913 5914 5915 5915 5915 5915 5915 5915 5914 5914 5913 5912 5912 5911 5910 5908 5906 5905 5903 5901 5899 5897 5896 5895 5894 5892 5891 5890 5889 5889 5889 5889 5888 5888 5888 5888 5888 5888 5888 5888
5905 5907 5910 5910 5911 5912 5913 5914 5914 5914 5914 5914 5913 5913 5912 5912 5911 5911 5910 5909 5907 5905 5904 5902 5900 5898 5897 5895 5895 5894 5893 5892 5891 5890 5890 5890 5890 5890 5890 5889 5889 5889 5889 5889
5902 5906 5906 5907 5909 5910 5911 5912 5913 5912 5912 5912 5912 5912 5912 5912 5911 5910 5909 5908 5907 5906 5904 5902 5900 5899 5897 5896 5895 5895 5894 5893 5892 5892 5891 5891 5891 5891 5891 5891 5890 5890 5890 5890
5899 5902 5903 5905 5907 5908 5909 5910 5911 5911 5910 5911 5911 5911 5911 5910 5910 5909 5908 5906 5906 5905 5904 5902 5900 5899 5897 5896 5896 5895 5895 5894 5893 5893 5892 5892 5892 5892 5892 5891 5891 5891 5891 5891
5895 5898 5900 5902 5905 5906 5907 5908 5908 5909 5908 5908 5908 5908 5909 5908 5908 5908 5907 5906 5904 5904 5903 5902 5900 5899 5898 5897 5896 5895 5895 5894 5894 5893 5893 5892 5892 5892 5892 5892 5891 5891 5891 5891
5892 5894 5897 5899 5902 5903 5904 5905 5905 5906 5905 5906 5906 5906 5906 5906 5906 5906 5905 5905 5903 5903 5902 5900 5900 5898 5897 5897 5896 5895 5895 5895 5894 5894 5893 5893 5893 5892 5892 5892 5891 5891 5891 5890
5887 5890 5893 5895 5897 5900 5900 5902 5902 5902 5902 5903 5904 5903 5904 5903 5904 5903 5903 5903 5902 5901 5900 5899 5899 5898 5897 5896 5896 5895 5895 5894 5894 5894 5894 5893 5893 5892 5892 5892 5891 5891 5890 5890
5881 5885 5888 5891 5893 5896 5897 5898 5900 5900 5899 5900 5900 5900 5902 5900 5900 5900 5900 5900 5900 5899 5899 5898 5897 5897 5896 5896 5895 5894 5894 5893 5893 5893 5893 5893 5892 5892 5891 5891 5890 5890 5889 5888
5876 5880 5884 5886 5889 5891 5893 5894 5896 5896 5896 5896 5896 5897 5898 5897 5897 5897 5898 5898 5897 5897 5896 5895 5895 5895 5895 5894 5893 5893 5892 5892 5892 5892 5892 5892 5891 5891 5891 5890 5889 5888 5888 5887
5872 5875 5879 5882 5885 5886 5889 5890 5892 5892 5892 5892 5893 5893 5894 5894 5894 5894 5894 5894 5894 5895 5894 5893 5892 5892 5892 5892 5892 5892 5891 5890 5890 5890 5890 5890 5890 5889 5889 5888 5888 5887 5886 5885
5866 5870 5874 5877 5879 5881 5884 5885 5886 5887 5888 5888 5888 5891 5891 5891 5891 5890 5890 5890 5891 5892 5892 5891 5891 5891 5890 5890 5889 5889 5889 5888 5888 5888 5888 5887 5887 5887 5886 5886 5885 5885 5884 5883
5861 5865 5868 5871 5874 5876 5878 5880 5881 5883 5884 5884 5884 5888 5886 5887 5887 5887 5887 5887 5887 5888 5888 5888 5887 5887 5887 5887 5887 5886 5885 5886 5886 5886 5885 5885 5884 5883 5883 5882 5882 5881 5881 5880
5856 5859 5863 5866 5870 5871 5872 5874 5875 5877 5878 5879 5880 5883 5882 5883 5884 5883 5882 5882 5883 5884 5883 5883 5883 5883 5884 5884 5884 5884 5883 5883 5882 5882 5881 5881 5880 5879 5878 5878 5878 5877 5877 5876
5851 5853 5857 5860 5862 5865 5867 5868 5870 5872 5872 5873 5874 5876 5877 5878 5878 5879 5878 5878 5879 5879 5879 5879 5879 5879 5879 5880 5880 5880 5880 5879 5879 5878 5877 5877 5875 5874 5874 5873 5873 5873 5873 5872
5845 5848 5850 5853 5856 5859 5860 5862 5864 5866 5866 5867 5868 5870 5872 5873 5873 5874 5874 5873 5873 5873 5874 5874 5874 5875 5875 5875 5875 5875 5874 5874 5874 5873 5873 5872 5871 5871 5870 5869 5869 5868 5868 5867
5840 5842 5844 5846 5849 5851 5853 5856 5857 5859 5860 5861 5863 5865 5866 5867 5867 5867 5868 5868 5868 5869 5869 5869 5869 5869 5869 5870 5870 5870 5869 5868 5868 5868 5867 5867 5866 5866 5865 5864 5864 5863 5862 5861
5833 5835 5837 5840 5842 5844 5847 5849 5851 5852 5854 5855 5857 5860 5860 5860 5861 5861 5861 5862 5863 5863 5864 5864 5863 5864 5864 5864 5864 5864 5864 5863 5862 5862 5861 5860 5860 5860 5859 5859 5858 5857 5856 5855
5827 5829 5830 5833 5836 5837 5842 5843 5844 5846 5847 5848 5850 5852 5853 5854 5854 5855 5855 5855 5856 5856 5857 5857 5857 5858 5858 5858 5858 5858 5857 5857 5856 5855 5853 5853 5853 5853 5852 5852 5851 5850 5849 5848
5821 5823 5824 5826 5828 5830 5834 5836 5837 5838 5840 5842 5843 5845 5846 5847 5848 5848 5848 5848 5849 5849 5850 5851 5851 5851 5851 5851 5851 5850 5850 5850 5849 5848 5847 5846 5845 5845 5845 5844 5844 5843 5842 5841
5815 5816 5818 5819 5821 5822 5827 5829 5830 5831 5832 5835 5836 5838 5838 5839 5840 5842 5841 5841 5841 5842 5842 5842 5843 5843 5843 5843 5843 5842 5842 5842 5842 5840 5839 5838 5837 5837 5836 5836 5835 5835 5833 5832
5808 5810 5811 5812 5813 5816 5819 5821 5822 5825 5827 5828 5828 5830 5831 5832 5833 5835 5835 5835 5835 5835 5835 5835 5835 5835 5835 5835 5834 5834 5834 5834 5833 5832 5831 5830 5829 5829 5828 5828 5827 5826 5825 5824
5801 5803 5804 5805 5807 5811 5812 5813 5815 5817 5819 5819 5821 5822 5823 5824 5825 5825 5826 5826 5827 5827 5828 5827 5827 5827 5827 5827 5826 5826 5826 5825 5824 5823 5822 5822 5821 5820 5819 5819 5818 5817 5816 5815
5794 5797 5798 5800 5803 5803 5805 5806 5807 5809 5811 5812 5813 5814 5815 5817 5817 5818 5818 5818 5818 5819 5819 5819 5819 5819 5819 5818 5818 5817 5817 5816 5815 5813 5812 5811 5811 5811 5810 5809 5808 5807 5806 5805
5788 5790 5792 5793 5795 5796 5797 5799 5800 5802 5803 5804 5805 5806 5807 5808 5809 5810 5810 5810 5810 5810 5810 5810 5811 5811 5810 5809 5809 5808 5808 5807 5805 5804 5803 5803 5802 5802 5801 5800 5799 5797 5796 5795
5783 5785 5785 5787 5789 5790 5792 5793 5794 5796 5796 5797 5797 5798 5799 5800 5801 5802 5802 5802 5802 5802 5802 5802 5802 5802 5802 5801 5800 5799 5798 5797 5796 5796 5795 5794 5794 5793 5792 5790 5789 5787 5785 5784
5778 5779 5780 5781 5783 5785 5786 5787 5787 5788 5789 5789 5790 5790 5791 5792 5793 5793 5793 5794 5793 5793 5794 5793 5793 5793 5792 5792 5791 5790 5789 5789 5788 5787 5786 5786 5785 5784 5782 5780 5779 5778 5776 5774